Time,TemperatureF,DewpointF,PressureIn,WindDirection,WindDirectionDegrees,WindSpeedMPH,WindSpeedGustMPH,Humidity,HourlyPrecipIn,Conditions,Clouds,dailyrainin,SolarRadiationWatts/m^2,SoftwareType,DateUTC
2013-06-18 00:03:00,62.9,55.9,29.93,NE,54,6.1,11.5,78,0.00,CLR,,0.00,0.0,WeatherDisplay:10.37,2013-06-17 22:03:00,
2013-06-18 00:08:00,62.8,55.8,29.93,NE,53,5.0,6.9,78,0.00,CLR,,0.00,0.0,WeatherDisplay:10.37,2013-06-17 22:08:00,
2013-06-18 00:13:00,62.7,55.7,29.93,ENE,61,5.4,6.9,78,0.00,CLR,,0.00,0.0,WeatherDisplay:10.37,2013-06-17 22:13:00,
2013-06-18 00:18:00,62.7,55.7,29.93,NE,54,6.2,11.5,78,0.00,CLR,,0.00,0.0,WeatherDisplay:10.37,2013-06-17 22:18:00,
2013-06-18 00:23:00,62.7,56.1,29.93,ENE,73,6.0,11.0,79,0.00,CLR,,0.00,0.0,WeatherDisplay:10.37,2013-06-17 22:23:00,
2013-06-18 00:28:00,62.7,56.1,29.94,ENE,57,0.8,3.5,79,0.00,CLR,,0.00,0.0,WeatherDisplay:10.37,2013-06-17 22:28:00,
2013-06-18 00:33:00,62.7,56.1,29.94,ENE,57,2.5,3.5,79,0.00,CLR,,0.00,0.0,WeatherDisplay:10.37,2013-06-17 22:33:00,
2013-06-18 00:38:00,62.6,56.0,29.95,ENE,61,2.6,5.8,79,0.00,CLR,,0.00,0.0,WeatherDisplay:10.37,2013-06-17 22:38:00,
2013-06-18 00:43:00,62.5,55.9,29.94,ENE,72,0.9,4.6,79,0.00,CLR,,0.00,0.0,WeatherDisplay:10.37,2013-06-17 22:43:00,
2013-06-18 00:48:00,62.5,56.2,29.95,ENE,74,1.8,3.5,80,0.00,CLR,,0.00,0.0,WeatherDisplay:10.37,2013-06-17 22:48:00,
2013-06-18 00:53:00,62.5,56.2,29.95,ENE,74,2.3,4.6,80,0.00,CLR,,0.00,0.0,WeatherDisplay:10.37,2013-06-17 22:53:00,
2013-06-18 01:00:00,62.4,56.1,29.95,ENE,74,1.7,3.5,80,0.00,CLR,,0.00,0.0,WeatherDisplay:10.37,2013-06-17 23:00:00,
2013-06-18 01:05:00,62.4,56.1,29.95,ENE,70,2.5,5.8,80,0.00,CLR,,0.00,0.0,WeatherDisplay:10.37,2013-06-17 23:05:00,
2013-06-18 01:10:00,62.3,56.0,29.95,ENE,65,3.7,6.0,80,0.00,CLR,,0.00,0.0,WeatherDisplay:10.37,2013-06-17 23:10:00,
2013-06-18 01:15:00,62.2,55.9,29.95,ENE,65,2.5,3.5,80,0.00,CLR,,0.00,0.0,WeatherDisplay:10.37,2013-06-17 23:15:00,
2013-06-18 01:20:00,62.2,56.3,29.96,ENE,65,0.6,5.8,81,0.00,CLR,,0.00,0.0,WeatherDisplay:10.37,2013-06-17 23:20:00,
2013-06-18 01:25:00,62.1,56.2,29.96,ENE,65,1.2,3.5,81,0.00,CLR,,0.00,0.0,WeatherDisplay:10.37,2013-06-17 23:25:00,
2013-06-18 01:30:00,62.2,56.3,29.96,ENE,65,1.4,4.0,81,0.00,CLR,,0.00,0.0,WeatherDisplay:10.37,2013-06-17 23:30:00,
2013-06-18 01:35:00,62.1,56.2,29.97,ENE,65,0.0,3.5,81,0.00,CLR,,0.00,0.0,WeatherDisplay:10.37,2013-06-17 23:35:00,
2013-06-18 01:40:00,62.1,56.5,29.97,ENE,65,0.0,0.0,82,0.00,CLR,,0.00,0.0,WeatherDisplay:10.37,2013-06-17 23:40:00,
2013-06-18 01:45:00,62.0,56.4,29.97,ENE,65,0.0,0.0,82,0.00,CLR,,0.00,0.0,WeatherDisplay:10.37,2013-06-17 23:45:00,
2013-06-18 01:50:00,62.1,56.5,29.96,ENE,65,0.0,3.5,82,0.00,CLR,,0.00,0.0,WeatherDisplay:10.37,2013-06-17 23:50:00,
2013-06-18 01:55:00,62.0,56.4,29.96,ENE,66,4.4,8.0,82,0.00,CLR,,0.00,0.0,WeatherDisplay:10.37,2013-06-17 23:55:00,
2013-06-18 02:00:00,61.8,56.2,29.95,ENE,61,4.3,6.9,82,0.00,CLR,,0.00,0.0,WeatherDisplay:10.37,2013-06-18 00:00:00,
2013-06-18 02:05:00,61.7,56.5,29.95,ENE,67,3.8,5.0,83,0.00,CLR,,0.00,0.0,WeatherDisplay:10.37,2013-06-18 00:05:00,
2013-06-18 02:10:00,61.7,56.5,29.95,ENE,58,3.7,11.5,83,0.00,CLR,,0.00,0.0,WeatherDisplay:10.37,2013-06-18 00:10:00,
2013-06-18 02:15:00,61.6,56.4,29.95,ENE,60,4.4,8.1,83,0.00,CLR,,0.00,0.0,WeatherDisplay:10.37,2013-06-18 00:15:00,
2013-06-18 02:20:00,61.5,55.9,29.95,NE,47,4.7,7.0,82,0.00,CLR,,0.00,0.0,WeatherDisplay:10.37,2013-06-18 00:20:00,
2013-06-18 02:25:00,61.5,55.9,29.94,NE,56,4.3,10.0,82,0.00,CLR,,0.00,0.0,WeatherDisplay:10.37,2013-06-18 00:25:00,
2013-06-18 02:30:00,61.4,55.8,29.93,ENE,68,6.3,10.4,82,0.00,CLR,,0.00,0.0,WeatherDisplay:10.37,2013-06-18 00:30:00,
2013-06-18 02:35:00,61.3,55.7,29.93,ENE,72,6.3,10.4,82,0.00,CLR,,0.00,0.0,WeatherDisplay:10.37,2013-06-18 00:35:00,
2013-06-18 02:40:00,61.3,55.7,29.93,NE,55,6.3,11.5,82,0.00,CLR,,0.00,0.0,WeatherDisplay:10.37,2013-06-18 00:40:00,
2013-06-18 02:45:00,61.3,55.7,29.93,ENE,58,4.9,6.9,82,0.00,CLR,,0.00,0.0,WeatherDisplay:10.37,2013-06-18 00:45:00,
2013-06-18 02:50:00,61.3,55.7,29.93,ENE,65,4.9,8.1,82,0.00,CLR,,0.00,0.0,WeatherDisplay:10.37,2013-06-18 00:50:00,
2013-06-18 02:55:00,61.2,55.6,29.93,NE,55,3.0,8.1,82,0.00,CLR,,0.00,0.0,WeatherDisplay:10.37,2013-06-18 00:55:00,
2013-06-18 03:00:00,61.2,55.6,29.94,ENE,58,4.5,12.7,82,0.00,CLR,,0.00,0.0,WeatherDisplay:10.37,2013-06-18 01:00:00,
2013-06-18 03:05:00,61.3,55.7,29.93,ENE,68,3.1,6.9,82,0.00,CLR,,0.00,0.0,WeatherDisplay:10.37,2013-06-18 01:05:00,
2013-06-18 03:10:00,61.2,55.6,29.93,ENE,59,5.4,8.1,82,0.00,CLR,,0.00,0.0,WeatherDisplay:10.37,2013-06-18 01:10:00,
2013-06-18 03:15:00,61.1,55.5,29.93,NE,47,5.5,6.9,82,0.00,CLR,,0.00,0.0,WeatherDisplay:10.37,2013-06-18 01:15:00,
2013-06-18 03:20:00,61.1,55.5,29.94,ENE,58,4.5,5.8,82,0.00,CLR,,0.00,0.0,WeatherDisplay:10.37,2013-06-18 01:20:00,
2013-06-18 03:25:00,61.1,55.5,29.93,ENE,67,3.7,5.8,82,0.00,CLR,,0.00,0.0,WeatherDisplay:10.37,2013-06-18 01:25:00,
2013-06-18 03:30:00,61.1,55.5,29.93,ENE,61,2.3,5.8,82,0.00,CLR,,0.00,0.0,WeatherDisplay:10.37,2013-06-18 01:30:00,
2013-06-18 03:35:00,61.0,55.4,29.93,ENE,61,1.3,3.5,82,0.00,CLR,,0.00,0.0,WeatherDisplay:10.37,2013-06-18 01:35:00,
2013-06-18 03:40:00,61.0,55.4,29.93,ENE,61,3.3,4.0,82,0.00,CLR,,0.00,0.0,WeatherDisplay:10.37,2013-06-18 01:40:00,
2013-06-18 03:45:00,61.0,55.4,29.94,ENE,61,0.8,2.3,82,0.00,CLR,,0.00,0.0,WeatherDisplay:10.37,2013-06-18 01:45:00,
2013-06-18 03:50:00,60.9,55.3,29.93,ENE,60,1.3,3.5,82,0.00,CLR,,0.00,0.0,WeatherDisplay:10.37,2013-06-18 01:50:00,
2013-06-18 03:55:00,60.8,55.2,29.93,ENE,60,1.1,4.6,82,0.00,CLR,,0.00,0.0,WeatherDisplay:10.37,2013-06-18 01:55:00,
2013-06-18 04:00:00,60.6,55.1,29.92,ENE,63,3.8,5.8,82,0.00,CLR,,0.00,0.0,WeatherDisplay:10.37,2013-06-18 02:00:00,
2013-06-18 04:05:00,60.5,55.3,29.92,ENE,63,2.4,4.0,83,0.00,CLR,,0.00,0.0,WeatherDisplay:10.37,2013-06-18 02:05:00,
2013-06-18 04:10:00,60.3,55.1,29.92,ENE,65,3.4,3.5,83,0.00,CLR,,0.00,0.0,WeatherDisplay:10.37,2013-06-18 02:10:00,
2013-06-18 04:15:00,60.2,55.0,29.92,ENE,72,1.6,2.3,83,0.00,CLR,,0.00,0.0,WeatherDisplay:10.37,2013-06-18 02:15:00,
2013-06-18 04:20:00,60.2,55.3,29.92,ENE,72,3.0,3.5,84,0.00,CLR,,0.00,0.0,WeatherDisplay:10.37,2013-06-18 02:20:00,
2013-06-18 04:25:00,60.2,55.3,29.92,ENE,76,0.8,3.5,84,0.00,CLR,,0.00,0.0,WeatherDisplay:10.37,2013-06-18 02:25:00,
2013-06-18 04:30:00,60.2,55.3,29.92,ENE,76,2.0,0.0,84,0.00,CLR,,0.00,0.0,WeatherDisplay:10.37,2013-06-18 02:30:00,
2013-06-18 04:35:00,60.2,55.3,29.92,East,83,3.5,4.6,84,0.00,CLR,,0.00,0.0,WeatherDisplay:10.37,2013-06-18 02:35:00,
2013-06-18 04:40:00,60.1,54.9,29.92,East,95,4.1,6.9,83,0.00,CLR,,0.00,0.0,WeatherDisplay:10.37,2013-06-18 02:40:00,
2013-06-18 04:45:00,60.1,54.9,29.92,East,85,3.9,4.0,83,0.00,CLR,,0.00,0.0,WeatherDisplay:10.37,2013-06-18 02:45:00,
2013-06-18 04:50:00,60.1,54.9,29.91,East,97,7.1,8.1,83,0.00,CLR,,0.00,0.0,WeatherDisplay:10.37,2013-06-18 02:50:00,
2013-06-18 04:55:00,60.0,54.8,29.91,East,93,4.6,8.1,83,0.00,CLR,,0.00,0.0,WeatherDisplay:10.37,2013-06-18 02:55:00,
2013-06-18 05:00:00,60.0,54.8,29.92,East,93,3.8,6.9,83,0.00,CLR,,0.00,0.0,WeatherDisplay:10.37,2013-06-18 03:00:00,
2013-06-18 05:05:00,60.0,55.1,29.91,East,94,3.7,5.8,84,0.00,CLR,,0.00,0.0,WeatherDisplay:10.37,2013-06-18 03:05:00,
2013-06-18 05:10:00,60.0,55.1,29.92,East,89,2.5,3.5,84,0.00,CLR,,0.00,0.0,WeatherDisplay:10.37,2013-06-18 03:10:00,
2013-06-18 05:15:00,60.0,55.1,29.92,East,89,0.0,4.6,84,0.00,CLR,,0.00,0.0,WeatherDisplay:10.37,2013-06-18 03:15:00,
2013-06-18 05:20:00,60.0,55.1,29.92,East,89,1.7,4.6,84,0.00,CLR,,0.00,0.0,WeatherDisplay:10.37,2013-06-18 03:20:00,
2013-06-18 05:25:00,60.0,55.1,29.92,East,89,0.2,3.5,84,0.00,CLR,,0.00,0.0,WeatherDisplay:10.37,2013-06-18 03:25:00,
2013-06-18 05:30:00,60.0,55.1,29.93,East,89,0.7,4.0,84,0.00,CLR,,0.00,0.0,WeatherDisplay:10.37,2013-06-18 03:30:00,
2013-06-18 05:35:00,60.0,55.1,29.93,East,88,0.1,4.6,84,0.00,CLR,,0.00,5.0,WeatherDisplay:10.37,2013-06-18 03:35:00,
2013-06-18 05:40:00,60.0,55.1,29.93,East,88,2.9,4.6,84,0.00,CLR,,0.00,9.0,WeatherDisplay:10.37,2013-06-18 03:40:00,
2013-06-18 05:45:00,60.0,55.1,29.93,East,90,4.5,5.8,84,0.00,CLR,,0.00,11.0,WeatherDisplay:10.37,2013-06-18 03:45:00,
2013-06-18 05:50:00,60.0,55.1,29.92,East,90,2.2,5.0,84,0.00,CLR,,0.00,14.0,WeatherDisplay:10.37,2013-06-18 03:50:00,
2013-06-18 05:55:00,59.9,55.0,29.92,East,90,3.6,5.8,84,0.00,CLR,,0.00,18.0,WeatherDisplay:10.37,2013-06-18 03:55:00,
2013-06-18 06:00:00,59.8,54.9,29.92,East,90,3.0,5.8,84,0.00,CLR,,0.00,23.0,WeatherDisplay:10.37,2013-06-18 04:00:00,
2013-06-18 06:01:00,59.8,54.9,29.92,East,90,4.0,6.0,84,0.00,CLR,,0.00,25.0,WeatherDisplay:10.37,2013-06-18 04:01:00,
2013-06-18 06:06:00,59.8,54.9,29.92,East,90,1.6,5.8,84,0.00,CLR,,0.00,30.0,WeatherDisplay:10.37,2013-06-18 04:06:00,
2013-06-18 06:11:00,59.7,54.8,29.92,East,86,1.3,4.0,84,0.00,CLR,,0.00,32.0,WeatherDisplay:10.37,2013-06-18 04:11:00,
2013-06-18 06:16:00,59.6,54.7,29.92,East,85,0.4,3.5,84,0.00,CLR,,0.00,33.0,WeatherDisplay:10.37,2013-06-18 04:16:00,
2013-06-18 06:21:00,59.6,55.1,29.92,East,83,4.7,5.8,85,0.00,CLR,,0.00,37.0,WeatherDisplay:10.37,2013-06-18 04:21:00,
2013-06-18 06:26:00,59.6,55.1,29.92,ENE,69,4.2,6.9,85,0.00,OVC,,0.00,40.0,WeatherDisplay:10.37,2013-06-18 04:26:00,
2013-06-18 06:31:00,59.7,55.2,29.92,ENE,69,1.4,4.0,85,0.00,OVC,,0.00,42.0,WeatherDisplay:10.37,2013-06-18 04:31:00,
2013-06-18 06:36:00,59.9,55.0,29.92,ENE,69,2.3,3.5,84,0.00,OVC,,0.00,44.0,WeatherDisplay:10.37,2013-06-18 04:36:00,
2013-06-18 06:41:00,60.2,55.3,29.93,NE,40,2.7,5.0,84,0.00,OVC,,0.00,46.0,WeatherDisplay:10.37,2013-06-18 04:41:00,
2013-06-18 06:46:00,60.4,55.2,29.92,East,92,6.1,8.0,83,0.00,OVC,,0.00,47.0,WeatherDisplay:10.37,2013-06-18 04:46:00,
2013-06-18 06:51:00,60.5,55.3,29.92,East,80,4.8,6.9,83,0.00,OVC,,0.00,51.0,WeatherDisplay:10.37,2013-06-18 04:51:00,
2013-06-18 06:56:00,60.6,55.4,29.93,East,84,2.0,3.5,83,0.00,OVC,,0.00,62.0,WeatherDisplay:10.37,2013-06-18 04:56:00,
2013-06-18 07:01:00,60.8,55.6,29.93,East,92,3.3,5.8,83,0.00,OVC,,0.00,77.0,WeatherDisplay:10.37,2013-06-18 05:01:00,
2013-06-18 07:06:00,61.2,55.6,29.93,East,97,3.9,5.8,82,0.00,OVC,,0.00,93.0,WeatherDisplay:10.37,2013-06-18 05:06:00,
2013-06-18 07:11:00,61.7,56.1,29.93,East,94,0.3,3.5,82,0.00,OVC,,0.00,127.0,WeatherDisplay:10.37,2013-06-18 05:11:00,
2013-06-18 07:16:00,62.2,56.3,29.93,East,92,3.7,5.0,81,0.00,BKN,,0.00,169.0,WeatherDisplay:10.37,2013-06-18 05:16:00,
2013-06-18 07:21:00,62.4,56.5,29.93,East,94,4.1,6.9,81,0.00,BKN,,0.00,192.0,WeatherDisplay:10.37,2013-06-18 05:21:00,
2013-06-18 07:26:00,62.8,56.5,29.93,East,100,5.3,6.9,80,0.00,BKN,,0.00,232.0,WeatherDisplay:10.37,2013-06-18 05:26:00,
2013-06-18 07:31:00,63.2,56.6,29.92,East,97,7.2,9.2,79,0.00,BKN,,0.00,246.0,WeatherDisplay:10.37,2013-06-18 05:31:00,
2013-06-18 07:36:00,63.5,56.8,29.92,East,92,4.9,8.1,79,0.00,BKN,,0.00,267.0,WeatherDisplay:10.37,2013-06-18 05:36:00,
2013-06-18 07:41:00,63.9,56.9,29.93,East,90,5.6,8.1,78,0.00,BKN,,0.00,218.0,WeatherDisplay:10.37,2013-06-18 05:41:00,
2013-06-18 07:46:00,64.0,57.0,29.93,East,99,3.3,6.9,78,0.00,OVC,,0.00,162.0,WeatherDisplay:10.37,2013-06-18 05:46:00,
2013-06-18 07:51:00,64.1,57.1,29.94,East,97,1.5,4.6,78,0.00,BKN,,0.00,234.0,WeatherDisplay:10.37,2013-06-18 05:51:00,
2013-06-18 07:56:00,64.3,57.3,29.93,ESE,105,5.3,9.2,78,0.00,BKN,,0.00,234.0,WeatherDisplay:10.37,2013-06-18 05:56:00,
2013-06-18 08:01:00,64.5,57.1,29.93,ESE,104,2.9,4.6,77,0.00,BKN,,0.00,204.0,WeatherDisplay:10.37,2013-06-18 06:01:00,
2013-06-18 08:06:00,64.4,57.4,29.93,ESE,105,1.9,5.8,78,0.00,OVC,,0.00,193.0,WeatherDisplay:10.37,2013-06-18 06:06:00,
2013-06-18 08:11:00,64.3,57.3,29.93,ESE,103,2.2,5.8,78,0.00,OVC,,0.00,141.0,WeatherDisplay:10.37,2013-06-18 06:11:00,
2013-06-18 08:16:00,64.2,57.5,29.93,ESE,103,1.8,3.5,79,0.00,OVC,,0.00,181.0,WeatherDisplay:10.37,2013-06-18 06:16:00,
2013-06-18 08:21:00,64.3,57.6,29.93,ESE,103,3.9,4.6,79,0.00,OVC,,0.00,174.0,WeatherDisplay:10.37,2013-06-18 06:21:00,
2013-06-18 08:26:00,64.3,57.6,29.93,East,100,3.8,6.9,79,0.00,OVC,,0.00,141.0,WeatherDisplay:10.37,2013-06-18 06:26:00,
2013-06-18 08:31:00,64.5,57.8,29.93,ESE,103,3.3,4.6,79,0.00,OVC,,0.00,169.0,WeatherDisplay:10.37,2013-06-18 06:31:00,
2013-06-18 08:36:00,64.6,57.9,29.94,ESE,104,3.8,5.8,79,0.00,BKN,,0.00,287.0,WeatherDisplay:10.37,2013-06-18 06:36:00,
2013-06-18 08:41:00,64.8,58.1,29.93,ESE,103,4.7,6.9,79,0.00,OVC,,0.00,148.0,WeatherDisplay:10.37,2013-06-18 06:41:00,
2013-06-18 08:46:00,65.0,58.3,29.94,ESE,110,4.6,8.1,79,0.00,BKN,,0.00,276.0,WeatherDisplay:10.37,2013-06-18 06:46:00,
2013-06-18 08:51:00,65.1,58.0,29.94,ESE,103,2.0,5.8,78,0.00,BKN,,0.00,336.0,WeatherDisplay:10.37,2013-06-18 06:51:00,
2013-06-18 08:56:00,65.4,58.7,29.94,ESE,103,4.3,5.8,79,0.00,BKN,,0.00,359.0,WeatherDisplay:10.37,2013-06-18 06:56:00,
2013-06-18 09:01:00,65.7,58.6,29.94,ESE,103,1.9,4.0,78,0.00,BKN,,0.00,373.0,WeatherDisplay:10.37,2013-06-18 07:01:00,
2013-06-18 09:06:00,66.0,58.9,29.94,ESE,103,1.8,4.6,78,0.00,BKN,,0.00,450.0,WeatherDisplay:10.37,2013-06-18 07:06:00,
2013-06-18 09:11:00,66.5,59.0,29.94,ESE,104,2.3,4.6,77,0.00,BKN,,0.00,450.0,WeatherDisplay:10.37,2013-06-18 07:11:00,
2013-06-18 09:16:00,66.9,59.8,29.95,ESE,104,0.5,2.3,78,0.00,SCT,,0.00,462.0,WeatherDisplay:10.37,2013-06-18 07:16:00,
2013-06-18 09:21:00,67.4,59.9,29.94,ESE,104,4.1,5.8,77,0.00,BKN,,0.00,394.0,WeatherDisplay:10.37,2013-06-18 07:21:00,
2013-06-18 09:28:00,68.1,60.2,29.94,ESE,104,6.0,6.0,76,0.00,OVC,,0.00,487.0,WeatherDisplay:10.37,2013-06-18 07:28:00,
2013-06-18 09:33:00,68.6,60.7,29.94,ESE,105,0.4,6.9,76,0.00,SCT,,0.00,527.0,WeatherDisplay:10.37,2013-06-18 07:33:00,
2013-06-18 09:38:00,69.2,61.3,29.94,ESE,105,0.4,1.2,76,0.00,SCT,,0.00,485.0,WeatherDisplay:10.37,2013-06-18 07:38:00,
2013-06-18 09:43:00,69.7,61.0,29.95,ESE,105,0.6,4.6,74,0.00,SCT,,0.00,475.0,WeatherDisplay:10.37,2013-06-18 07:43:00,
2013-06-18 09:48:00,70.4,61.3,29.95,ESE,105,0.0,0.0,73,0.00,SCT,,0.00,517.0,WeatherDisplay:10.37,2013-06-18 07:48:00,
2013-06-18 09:53:00,70.8,61.7,29.95,ESE,106,0.5,3.5,73,0.00,SCT,,0.00,497.0,WeatherDisplay:10.37,2013-06-18 07:53:00,
2013-06-18 09:58:00,71.3,61.8,29.95,ESE,106,2.1,5.0,72,0.00,BKN,,0.00,432.0,WeatherDisplay:10.37,2013-06-18 07:58:00,
2013-06-18 10:03:00,71.8,62.3,29.95,ESE,108,3.6,4.6,72,0.00,SCT,,0.00,499.0,WeatherDisplay:10.37,2013-06-18 08:03:00,
2013-06-18 10:08:00,72.2,62.6,29.95,ESE,117,3.1,4.6,72,0.00,SCT,,0.00,557.0,WeatherDisplay:10.37,2013-06-18 08:08:00,
2013-06-18 10:13:00,72.7,62.7,29.95,ESE,117,0.0,1.2,71,0.00,SCT,,0.00,513.0,WeatherDisplay:10.37,2013-06-18 08:13:00,
2013-06-18 10:18:00,73.1,63.1,29.95,ESE,117,0.0,0.0,71,0.00,SCT,,0.00,601.0,WeatherDisplay:10.37,2013-06-18 08:18:00,
2013-06-18 10:23:00,73.4,63.0,29.95,ESE,117,0.0,0.0,70,0.00,SCT,,0.00,585.0,WeatherDisplay:10.37,2013-06-18 08:23:00,
2013-06-18 10:28:00,73.6,63.2,29.95,ESE,117,1.4,3.5,70,0.00,SCT,,0.00,587.0,WeatherDisplay:10.37,2013-06-18 08:28:00,
2013-06-18 10:33:00,73.9,63.1,29.95,ESE,117,0.4,3.5,69,0.00,SCT,,0.00,628.0,WeatherDisplay:10.37,2013-06-18 08:33:00,
2013-06-18 10:38:00,74.2,63.4,29.95,ESE,117,0.0,0.0,69,0.00,SCT,,0.00,615.0,WeatherDisplay:10.37,2013-06-18 08:38:00,
2013-06-18 10:43:00,74.5,63.6,29.95,ESE,117,0.7,2.0,69,0.00,SCT,,0.00,626.0,WeatherDisplay:10.37,2013-06-18 08:43:00,
2013-06-18 10:48:00,74.8,63.9,29.95,ESE,117,1.8,4.6,69,0.00,SCT,,0.00,663.0,WeatherDisplay:10.37,2013-06-18 08:48:00,
2013-06-18 10:53:00,74.9,63.6,29.95,ESE,117,0.8,3.5,68,0.00,SCT,,0.00,633.0,WeatherDisplay:10.37,2013-06-18 08:53:00,
2013-06-18 10:58:00,75.4,64.1,29.95,ESE,117,0.4,2.0,68,0.00,BKN,,0.00,450.0,WeatherDisplay:10.37,2013-06-18 08:58:00,
2013-06-18 11:03:00,75.7,63.9,29.95,ESE,117,0.3,4.6,67,0.00,BKN,,0.00,612.0,WeatherDisplay:10.37,2013-06-18 09:03:00,
2013-06-18 11:08:00,75.9,64.6,29.95,ESE,117,0.7,2.0,68,0.00,SCT,,0.00,601.0,WeatherDisplay:10.37,2013-06-18 09:08:00,
2013-06-18 11:13:00,76.2,64.0,29.95,ESE,117,0.3,5.8,66,0.00,SCT,,0.00,779.0,WeatherDisplay:10.37,2013-06-18 09:13:00,
2013-06-18 11:18:00,76.6,64.8,29.95,ESE,117,0.0,0.0,67,0.00,SCT,,0.00,687.0,WeatherDisplay:10.37,2013-06-18 09:18:00,
2013-06-18 11:23:00,77.1,64.4,29.95,ESE,117,0.0,2.3,65,0.00,SCT,,0.00,584.0,WeatherDisplay:10.37,2013-06-18 09:23:00,
2013-06-18 11:28:00,77.1,64.4,29.94,ESE,117,1.1,0.0,65,0.00,SCT,,0.00,570.0,WeatherDisplay:10.37,2013-06-18 09:28:00,
2013-06-18 11:33:00,77.4,65.1,29.95,ESE,117,0.2,0.0,66,0.00,BKN,,0.00,596.0,WeatherDisplay:10.37,2013-06-18 09:33:00,
2013-06-18 11:38:00,77.8,65.1,29.95,SSE,165,1.4,5.8,65,0.00,SCT,,0.00,615.0,WeatherDisplay:10.37,2013-06-18 09:38:00,
2013-06-18 11:43:00,78.2,65.4,29.95,WNW,283,2.1,4.6,65,0.00,BKN,,0.00,461.0,WeatherDisplay:10.37,2013-06-18 09:43:00,
2013-06-18 11:48:00,78.4,65.2,29.95,West,261,0.0,0.0,64,0.00,BKN,,0.00,427.0,WeatherDisplay:10.37,2013-06-18 09:48:00,
2013-06-18 11:53:00,78.7,65.9,29.95,West,261,1.6,2.3,65,0.00,BKN,,0.00,445.0,WeatherDisplay:10.37,2013-06-18 09:53:00,
2013-06-18 11:58:00,78.5,65.3,29.95,West,261,3.3,4.6,64,0.00,BKN,,0.00,399.0,WeatherDisplay:10.37,2013-06-18 09:58:00,
2013-06-18 12:03:00,78.4,65.6,29.95,WSW,254,0.1,2.3,65,0.00,BKN,,0.00,369.0,WeatherDisplay:10.37,2013-06-18 10:03:00,
2013-06-18 12:08:00,78.6,65.8,29.95,SW,232,0.3,3.5,65,0.00,BKN,,0.00,568.0,WeatherDisplay:10.37,2013-06-18 10:08:00,
2013-06-18 12:13:00,78.6,65.8,29.95,SW,232,2.1,5.8,65,0.00,BKN,,0.00,527.0,WeatherDisplay:10.37,2013-06-18 10:13:00,
2013-06-18 12:18:00,78.6,65.8,29.95,SW,230,4.9,5.8,65,0.00,BKN,,0.00,501.0,WeatherDisplay:10.37,2013-06-18 10:18:00,
2013-06-18 12:23:00,78.5,65.7,29.94,SW,228,2.4,5.8,65,0.00,SCT,,0.00,656.0,WeatherDisplay:10.37,2013-06-18 10:23:00,
2013-06-18 12:28:00,78.7,65.9,29.94,SW,223,4.3,6.9,65,0.00,SCT,,0.00,698.0,WeatherDisplay:10.37,2013-06-18 10:28:00,
2013-06-18 12:33:00,78.8,65.6,29.94,SW,222,3.8,6.9,64,0.00,SCT,,0.00,759.0,WeatherDisplay:10.37,2013-06-18 10:33:00,
2013-06-18 12:38:00,79.0,65.8,29.94,SW,221,0.7,4.6,64,0.00,SCT,,0.00,708.0,WeatherDisplay:10.37,2013-06-18 10:38:00,
2013-06-18 12:43:00,79.3,66.0,29.94,SW,221,3.8,6.0,64,0.00,SCT,,0.00,689.0,WeatherDisplay:10.37,2013-06-18 10:43:00,
2013-06-18 12:48:00,79.4,66.1,29.94,SW,219,0.7,4.6,64,0.00,SCT,,0.00,629.0,WeatherDisplay:10.37,2013-06-18 10:48:00,
2013-06-18 12:53:00,79.8,66.5,29.94,SW,218,4.0,5.8,64,0.00,SCT,,0.00,707.0,WeatherDisplay:10.37,2013-06-18 10:53:00,
2013-06-18 12:58:00,79.8,66.1,29.94,SW,218,1.6,6.9,63,0.00,SCT,,0.00,754.0,WeatherDisplay:10.37,2013-06-18 10:58:00,
2013-06-18 13:03:00,79.9,66.6,29.94,SW,218,0.1,1.0,64,0.00,SCT,,0.00,779.0,WeatherDisplay:10.37,2013-06-18 11:03:00,
2013-06-18 13:08:00,80.2,66.9,29.94,SW,215,4.6,6.9,64,0.00,SCT,,0.00,756.0,WeatherDisplay:10.37,2013-06-18 11:08:00,
2013-06-18 13:13:00,80.5,67.2,29.94,SW,215,2.3,3.5,64,0.00,SCT,,0.00,737.0,WeatherDisplay:10.37,2013-06-18 11:13:00,
2013-06-18 13:18:00,80.9,67.1,29.94,West,271,0.0,0.0,63,0.00,SCT,,0.00,791.0,WeatherDisplay:10.37,2013-06-18 11:18:00,
2013-06-18 13:23:00,81.1,67.3,29.94,WSW,253,0.9,5.8,63,0.00,SCT,,0.00,779.0,WeatherDisplay:10.37,2013-06-18 11:23:00,
2013-06-18 13:28:00,81.4,67.1,29.94,WSW,256,1.1,3.5,62,0.00,SCT,,0.00,745.0,WeatherDisplay:10.37,2013-06-18 11:28:00,
2013-06-18 13:33:00,81.6,67.8,29.94,WSW,256,0.5,5.8,63,0.00,SCT,,0.00,772.0,WeatherDisplay:10.37,2013-06-18 11:33:00,
2013-06-18 13:38:00,81.8,68.0,29.94,WSW,251,3.1,4.6,63,0.00,SCT,,0.00,773.0,WeatherDisplay:10.37,2013-06-18 11:38:00,
2013-06-18 13:43:00,81.8,68.0,29.94,WSW,251,4.8,6.0,63,0.00,SCT,,0.00,786.0,WeatherDisplay:10.37,2013-06-18 11:43:00,
2013-06-18 13:48:00,81.8,68.0,29.94,WSW,251,2.8,5.8,63,0.00,SCT,,0.00,800.0,WeatherDisplay:10.37,2013-06-18 11:48:00,
2013-06-18 13:53:00,82.2,67.9,29.94,WSW,246,1.3,5.8,62,0.00,SCT,,0.00,816.0,WeatherDisplay:10.37,2013-06-18 11:53:00,
2013-06-18 13:58:00,82.4,68.1,29.94,WSW,246,3.3,6.0,62,0.00,SCT,,0.00,786.0,WeatherDisplay:10.37,2013-06-18 11:58:00,
2013-06-18 14:03:00,82.7,67.4,29.94,SW,233,4.8,5.0,60,0.00,SCT,,0.00,759.0,WeatherDisplay:10.37,2013-06-18 12:03:00,
2013-06-18 14:08:00,83.0,67.7,29.94,SW,221,4.3,6.9,60,0.00,SCT,,0.00,717.0,WeatherDisplay:10.37,2013-06-18 12:08:00,
2013-06-18 14:13:00,83.0,68.1,29.94,SW,221,3.2,5.0,61,0.00,SCT,,0.00,768.0,WeatherDisplay:10.37,2013-06-18 12:13:00,
2013-06-18 14:18:00,83.4,67.1,29.94,SW,221,1.2,5.8,58,0.00,FEW,,0.00,854.0,WeatherDisplay:10.37,2013-06-18 12:18:00,
2013-06-18 14:23:00,83.4,67.5,29.93,SW,221,0.1,3.5,59,0.00,FEW,,0.00,772.0,WeatherDisplay:10.37,2013-06-18 12:23:00,
2013-06-18 14:28:00,83.2,67.8,29.94,SW,221,1.6,4.6,60,0.00,SCT,,0.00,796.0,WeatherDisplay:10.37,2013-06-18 12:28:00,
2013-06-18 14:33:00,83.3,67.5,29.93,SW,234,5.9,5.9,59,0.00,SCT,,0.00,461.0,WeatherDisplay:10.37,2013-06-18 12:33:00,
2013-06-18 14:38:00,83.0,67.2,29.93,SW,235,1.7,4.6,59,0.00,SCT,,0.00,524.0,WeatherDisplay:10.37,2013-06-18 12:38:00,
2013-06-18 14:43:00,82.8,67.5,29.93,SW,233,4.4,8.1,60,0.00,SCT,,0.00,647.0,WeatherDisplay:10.37,2013-06-18 12:43:00,
2013-06-18 14:48:00,83.4,67.5,29.93,SW,233,3.5,3.5,59,0.00,SCT,,0.00,629.0,WeatherDisplay:10.37,2013-06-18 12:48:00,
2013-06-18 14:53:00,83.7,67.8,29.93,SW,233,0.0,2.3,59,0.00,SCT,,0.00,480.0,WeatherDisplay:10.37,2013-06-18 12:53:00,
2013-06-18 14:58:00,84.0,67.6,29.93,SW,233,0.1,3.5,58,0.00,SCT,,0.00,522.0,WeatherDisplay:10.37,2013-06-18 12:58:00,
2013-06-18 15:03:00,84.1,67.2,29.93,SW,233,3.6,4.6,57,0.00,FEW,,0.00,657.0,WeatherDisplay:10.37,2013-06-18 13:03:00,
2013-06-18 15:08:00,84.6,67.2,29.93,SW,233,1.7,5.0,56,0.00,FEW,,0.00,397.0,WeatherDisplay:10.37,2013-06-18 13:08:00,
2013-06-18 15:13:00,84.3,67.4,29.93,SW,231,2.8,5.8,57,0.00,FEW,,0.00,594.0,WeatherDisplay:10.37,2013-06-18 13:13:00,
2013-06-18 15:18:00,84.2,67.3,29.93,SW,231,4.9,6.9,57,0.00,FEW,,0.00,536.0,WeatherDisplay:10.37,2013-06-18 13:18:00,
2013-06-18 15:23:00,83.6,66.7,29.93,SW,231,3.5,6.9,57,0.00,FEW,,0.00,438.0,WeatherDisplay:10.37,2013-06-18 13:23:00,
2013-06-18 15:28:00,83.5,66.6,29.92,SW,231,1.7,3.5,57,0.00,FEW,,0.00,842.0,WeatherDisplay:10.37,2013-06-18 13:28:00,
2013-06-18 15:33:00,83.8,66.9,29.92,WNW,298,6.8,9.2,57,0.00,FEW,,0.00,907.0,WeatherDisplay:10.37,2013-06-18 13:33:00,
2013-06-18 15:38:00,82.2,66.9,29.93,NW,306,6.2,12.7,60,0.00,SCT,,0.00,689.0,WeatherDisplay:10.37,2013-06-18 13:38:00,
2013-06-18 15:43:00,80.4,66.2,29.93,NW,317,9.0,11.5,62,0.00,SCT,,0.00,557.0,WeatherDisplay:10.37,2013-06-18 13:43:00,
2013-06-18 15:48:00,78.4,65.6,29.93,NW,308,8.3,11.5,65,0.00,SCT,,0.00,548.0,WeatherDisplay:10.37,2013-06-18 13:48:00,
2013-06-18 15:53:00,78.2,65.4,29.93,NW,323,8.6,10.4,65,0.00,SCT,,0.00,517.0,WeatherDisplay:10.37,2013-06-18 13:53:00,
2013-06-18 15:58:00,78.0,65.3,29.94,NNW,334,5.8,6.9,65,0.00,BKN,,0.00,434.0,WeatherDisplay:10.37,2013-06-18 13:58:00,
2013-06-18 16:03:00,77.5,64.8,29.93,NNW,334,5.7,10.4,65,0.00,BKN,,0.00,278.0,WeatherDisplay:10.37,2013-06-18 14:03:00,
2013-06-18 16:08:00,76.8,64.6,29.93,NNW,342,4.8,10.4,66,0.00,BKN,,0.00,257.0,WeatherDisplay:10.37,2013-06-18 14:08:00,
2013-06-18 16:13:00,76.2,64.4,29.94,NW,323,6.7,10.4,67,0.00,BKN,,0.00,229.0,WeatherDisplay:10.37,2013-06-18 14:13:00,
2013-06-18 16:18:00,75.6,64.3,29.94,NW,320,4.8,10.4,68,0.00,OVC,,0.00,195.0,WeatherDisplay:10.37,2013-06-18 14:18:00,
2013-06-18 16:23:00,75.1,64.2,29.94,NW,321,1.8,8.1,69,0.00,OVC,,0.00,176.0,WeatherDisplay:10.37,2013-06-18 14:23:00,
2013-06-18 16:28:00,74.7,64.2,29.94,NW,319,4.8,9.2,70,0.00,OVC,,0.00,195.0,WeatherDisplay:10.37,2013-06-18 14:28:00,
2013-06-18 16:33:00,74.6,64.1,29.94,North,351,4.1,6.9,70,0.00,OVC,,0.00,221.0,WeatherDisplay:10.37,2013-06-18 14:33:00,
2013-06-18 16:38:00,74.6,64.6,29.93,NNW,339,2.7,8.1,71,0.00,BKN,,0.00,348.0,WeatherDisplay:10.37,2013-06-18 14:38:00,
2013-06-18 16:43:00,74.9,64.4,29.94,NNW,327,6.2,8.1,70,0.00,SCT,,0.00,606.0,WeatherDisplay:10.37,2013-06-18 14:43:00,
2013-06-18 16:48:00,75.6,64.7,29.93,NNW,347,7.0,10.4,69,0.00,FEW,,0.00,628.0,WeatherDisplay:10.37,2013-06-18 14:48:00,
2013-06-18 16:53:00,75.8,64.5,29.93,NW,325,4.6,9.2,68,0.00,FEW,,0.00,566.0,WeatherDisplay:10.37,2013-06-18 14:53:00,
2013-06-18 16:58:00,76.4,64.6,29.93,NNW,331,3.6,4.6,67,0.00,SCT,,0.00,515.0,WeatherDisplay:10.37,2013-06-18 14:58:00,
2013-06-18 17:03:00,76.6,64.8,29.93,NNW,330,2.7,4.6,67,0.00,BKN,,0.00,320.0,WeatherDisplay:10.37,2013-06-18 15:03:00,
2013-06-18 17:08:00,76.7,64.9,29.93,NNW,327,1.9,3.5,67,0.00,BKN,,0.00,357.0,WeatherDisplay:10.37,2013-06-18 15:08:00,
2013-06-18 17:13:00,76.7,64.5,29.93,NNW,335,5.5,8.1,66,0.00,BKN,,0.00,269.0,WeatherDisplay:10.37,2013-06-18 15:13:00,
2013-06-18 17:18:00,76.5,64.7,29.93,NNW,336,2.0,5.8,67,0.00,BKN,,0.00,230.0,WeatherDisplay:10.37,2013-06-18 15:18:00,
2013-06-18 17:23:00,76.3,64.5,29.93,NNW,327,4.9,6.9,67,0.00,BKN,,0.00,220.0,WeatherDisplay:10.37,2013-06-18 15:23:00,
2013-06-18 17:28:00,75.7,64.4,29.93,NW,316,3.8,5.8,68,0.00,BKN,,0.00,214.0,WeatherDisplay:10.37,2013-06-18 15:28:00,
2013-06-18 17:33:00,75.7,64.8,29.92,NNW,329,5.0,8.1,69,0.00,BKN,,0.00,230.0,WeatherDisplay:10.37,2013-06-18 15:33:00,
2013-06-18 17:38:00,75.8,64.9,29.92,NNW,328,4.4,6.0,69,0.00,BKN,,0.00,239.0,WeatherDisplay:10.37,2013-06-18 15:38:00,
2013-06-18 17:43:00,75.9,64.6,29.92,NNW,337,4.4,4.6,68,0.00,BKN,,0.00,229.0,WeatherDisplay:10.37,2013-06-18 15:43:00,
2013-06-18 17:48:00,76.0,64.7,29.92,NNW,332,4.0,5.8,68,0.00,BKN,,0.00,213.0,WeatherDisplay:10.37,2013-06-18 15:48:00,
2013-06-18 17:53:00,76.1,64.7,29.92,NNW,332,3.5,5.8,68,0.00,BKN,,0.00,220.0,WeatherDisplay:10.37,2013-06-18 15:53:00,
2013-06-18 17:58:00,76.1,64.7,29.92,NNW,332,1.0,4.6,68,0.00,BKN,,0.00,232.0,WeatherDisplay:10.37,2013-06-18 15:58:00,
2013-06-18 18:03:00,76.2,64.8,29.92,West,271,2.0,3.5,68,0.00,BKN,,0.00,223.0,WeatherDisplay:10.37,2013-06-18 16:03:00,
2013-06-18 18:08:00,76.3,64.9,29.92,WNW,288,1.0,5.8,68,0.00,BKN,,0.00,232.0,WeatherDisplay:10.37,2013-06-18 16:08:00,
2013-06-18 18:13:00,76.4,64.6,29.92,WNW,300,3.3,4.6,67,0.00,SCT,,0.00,279.0,WeatherDisplay:10.37,2013-06-18 16:13:00,
2013-06-18 18:18:00,76.6,65.2,29.92,NW,312,4.6,5.8,68,0.00,SCT,,0.00,278.0,WeatherDisplay:10.37,2013-06-18 16:18:00,
2013-06-18 18:23:00,76.7,64.9,29.92,NW,323,3.2,3.5,67,0.00,SCT,,0.00,320.0,WeatherDisplay:10.37,2013-06-18 16:23:00,
2013-06-18 18:28:00,77.0,65.2,29.92,NW,325,1.7,4.6,67,0.00,SCT,,0.00,315.0,WeatherDisplay:10.37,2013-06-18 16:28:00,
2013-06-18 18:33:00,77.1,65.3,29.92,NNW,330,0.0,5.8,67,0.00,SCT,,0.00,279.0,WeatherDisplay:10.37,2013-06-18 16:33:00,
2013-06-18 18:38:00,77.2,64.9,29.92,NNW,331,3.9,5.8,66,0.00,SCT,,0.00,257.0,WeatherDisplay:10.37,2013-06-18 16:38:00,
2013-06-18 18:43:00,77.5,65.2,29.91,WNW,295,2.0,7.0,66,0.00,FEW,,0.00,390.0,WeatherDisplay:10.37,2013-06-18 16:43:00,
2013-06-18 18:48:00,77.8,65.1,29.91,NW,326,2.4,7.0,65,0.00,FEW,,0.00,401.0,WeatherDisplay:10.37,2013-06-18 16:48:00,
2013-06-18 18:53:00,77.7,65.4,29.92,NNW,334,4.2,6.9,66,0.00,FEW,,0.00,366.0,WeatherDisplay:10.37,2013-06-18 16:53:00,
2013-06-18 18:58:00,77.9,65.2,29.92,NNW,336,4.1,4.6,65,0.00,FEW,,0.00,350.0,WeatherDisplay:10.37,2013-06-18 16:58:00,
2013-06-18 19:03:00,77.6,64.9,29.92,NNW,332,6.2,8.1,65,0.00,FEW,,0.00,336.0,WeatherDisplay:10.37,2013-06-18 17:03:00,
2013-06-18 19:08:00,77.7,65.0,29.91,NW,326,5.4,6.9,65,0.00,FEW,,0.00,306.0,WeatherDisplay:10.37,2013-06-18 17:08:00,
2013-06-18 19:13:00,77.9,65.2,29.91,NW,315,2.5,6.0,65,0.00,FEW,,0.00,264.0,WeatherDisplay:10.37,2013-06-18 17:13:00,
2013-06-18 19:18:00,77.7,65.0,29.91,NNW,327,4.2,8.1,65,0.00,SCT,,0.00,234.0,WeatherDisplay:10.37,2013-06-18 17:18:00,
2013-06-18 19:23:00,77.6,64.9,29.91,NNW,340,4.9,6.9,65,0.00,SCT,,0.00,234.0,WeatherDisplay:10.37,2013-06-18 17:23:00,
2013-06-18 19:28:00,77.5,65.2,29.91,North,351,3.2,8.0,66,0.00,FEW,,0.00,183.0,WeatherDisplay:10.37,2013-06-18 17:28:00,
2013-06-18 19:33:00,77.0,64.7,29.91,NNW,346,5.1,6.9,66,0.00,FEW,,0.00,214.0,WeatherDisplay:10.37,2013-06-18 17:33:00,
2013-06-18 19:38:00,76.9,64.7,29.91,NNW,344,4.4,8.1,66,0.00,FEW,,0.00,192.0,WeatherDisplay:10.37,2013-06-18 17:38:00,
2013-06-18 19:43:00,76.7,64.9,29.91,NW,317,5.1,6.9,67,0.00,SCT,,0.00,172.0,WeatherDisplay:10.37,2013-06-18 17:43:00,
2013-06-18 19:48:00,76.8,65.0,29.91,NW,321,5.0,6.0,67,0.00,SCT,,0.00,155.0,WeatherDisplay:10.37,2013-06-18 17:48:00,
2013-06-18 19:53:00,76.6,64.8,29.91,NNW,334,3.5,6.9,67,0.00,SCT,,0.00,116.0,WeatherDisplay:10.37,2013-06-18 17:53:00,
2013-06-18 19:58:00,76.4,65.0,29.91,NNW,336,0.9,3.5,68,0.00,BKN,,0.00,91.0,WeatherDisplay:10.37,2013-06-18 17:58:00,
2013-06-18 20:03:00,76.2,64.8,29.91,NNW,336,1.9,3.5,68,0.00,BKN,,0.00,84.0,WeatherDisplay:10.37,2013-06-18 18:03:00,
2013-06-18 20:08:00,76.1,64.7,29.92,NW,325,2.0,5.0,68,0.00,SCT,,0.00,93.0,WeatherDisplay:10.37,2013-06-18 18:08:00,
2013-06-18 20:13:00,75.8,64.9,29.92,NW,325,1.6,3.5,69,0.00,SCT,,0.00,79.0,WeatherDisplay:10.37,2013-06-18 18:13:00,
2013-06-18 20:18:00,75.7,64.8,29.92,NW,325,0.2,4.6,69,0.00,BKN,,0.00,67.0,WeatherDisplay:10.37,2013-06-18 18:18:00,
2013-06-18 20:23:00,75.3,64.8,29.91,NW,325,1.2,5.0,70,0.00,SCT,,0.00,74.0,WeatherDisplay:10.37,2013-06-18 18:23:00,
2013-06-18 20:28:00,75.0,64.5,29.92,NW,315,4.4,6.0,70,0.00,SCT,,0.00,74.0,WeatherDisplay:10.37,2013-06-18 18:28:00,
2013-06-18 20:33:00,74.7,64.2,29.92,NW,323,5.5,6.0,70,0.00,SCT,,0.00,58.0,WeatherDisplay:10.37,2013-06-18 18:33:00,
2013-06-18 20:38:00,74.4,64.0,29.92,NNW,334,4.8,8.1,70,0.00,SCT,,0.00,58.0,WeatherDisplay:10.37,2013-06-18 18:38:00,
2013-06-18 20:43:00,74.2,63.8,29.92,NNW,334,3.6,8.1,70,0.00,FEW,,0.00,56.0,WeatherDisplay:10.37,2013-06-18 18:43:00,
2013-06-18 20:48:00,74.1,63.7,29.92,NNW,341,5.0,6.9,70,0.00,FEW,,0.00,54.0,WeatherDisplay:10.37,2013-06-18 18:48:00,
2013-06-18 20:53:00,74.0,64.0,29.92,NNW,340,2.0,5.8,71,0.00,FEW,,0.00,51.0,WeatherDisplay:10.37,2013-06-18 18:53:00,
2013-06-18 20:58:00,73.9,63.9,29.92,NNW,340,0.8,5.8,71,0.00,FEW,,0.00,53.0,WeatherDisplay:10.37,2013-06-18 18:58:00,
2013-06-18 21:03:00,73.8,63.8,29.92,NNW,342,2.6,4.6,71,0.00,FEW,,0.00,47.0,WeatherDisplay:10.37,2013-06-18 19:03:00,
2013-06-18 21:08:00,73.6,63.6,29.92,NNW,337,2.6,4.6,71,0.00,FEW,,0.00,44.0,WeatherDisplay:10.37,2013-06-18 19:08:00,
2013-06-18 21:13:00,73.5,63.5,29.92,NNW,333,3.5,4.6,71,0.00,FEW,,0.00,39.0,WeatherDisplay:10.37,2013-06-18 19:13:00,
2013-06-18 21:18:00,73.3,63.3,29.92,NNW,333,2.9,4.6,71,0.00,FEW,,0.00,35.0,WeatherDisplay:10.37,2013-06-18 19:18:00,
2013-06-18 21:23:00,73.1,63.5,29.92,NNW,333,1.3,4.6,72,0.00,FEW,,0.00,30.0,WeatherDisplay:10.37,2013-06-18 19:23:00,
2013-06-18 21:28:00,72.8,63.2,29.92,NNW,333,1.0,3.5,72,0.00,CLR,,0.00,26.0,WeatherDisplay:10.37,2013-06-18 19:28:00,
2013-06-18 21:33:00,72.6,63.4,29.92,NNW,333,0.0,0.0,73,0.00,CLR,,0.00,21.0,WeatherDisplay:10.37,2013-06-18 19:33:00,
2013-06-18 21:38:00,72.5,63.3,29.92,NNW,333,0.0,1.2,73,0.00,CLR,,0.00,18.0,WeatherDisplay:10.37,2013-06-18 19:38:00,
2013-06-18 21:43:00,72.3,63.1,29.92,NNW,333,0.2,3.0,73,0.00,CLR,,0.00,14.0,WeatherDisplay:10.37,2013-06-18 19:43:00,
2013-06-18 21:48:00,72.2,63.4,29.92,NNW,333,1.9,3.5,74,0.00,CLR,,0.00,9.0,WeatherDisplay:10.37,2013-06-18 19:48:00,
2013-06-18 21:53:00,72.1,63.3,29.92,NNW,333,1.1,4.6,74,0.00,CLR,,0.00,7.0,WeatherDisplay:10.37,2013-06-18 19:53:00,
2013-06-18 21:58:00,72.1,63.3,29.93,NNW,333,1.2,3.5,74,0.00,CLR,,0.00,0.0,WeatherDisplay:10.37,2013-06-18 19:58:00,
2013-06-18 22:03:00,71.9,63.5,29.93,NNW,333,0.0,0.0,75,0.00,CLR,,0.00,0.0,WeatherDisplay:10.37,2013-06-18 20:03:00,
2013-06-18 22:08:00,71.7,63.3,29.93,NNW,333,0.0,0.0,75,0.00,CLR,,0.00,0.0,WeatherDisplay:10.37,2013-06-18 20:08:00,
2013-06-18 22:13:00,71.5,63.1,29.93,NNW,333,0.0,1.2,75,0.00,CLR,,0.00,0.0,WeatherDisplay:10.37,2013-06-18 20:13:00,
2013-06-18 22:18:00,71.4,63.4,29.93,NNW,333,0.0,0.0,76,0.00,CLR,,0.00,0.0,WeatherDisplay:10.37,2013-06-18 20:18:00,
2013-06-18 22:23:00,71.3,63.3,29.93,NNW,333,3.2,3.5,76,0.00,CLR,,0.00,0.0,WeatherDisplay:10.37,2013-06-18 20:23:00,
2013-06-18 22:28:00,71.0,63.0,29.93,NNW,333,2.5,3.5,76,0.00,CLR,,0.00,0.0,WeatherDisplay:10.37,2013-06-18 20:28:00,
2013-06-18 22:33:00,70.9,62.9,29.94,NNW,333,0.8,3.5,76,0.00,CLR,,0.00,0.0,WeatherDisplay:10.37,2013-06-18 20:33:00,
2013-06-18 22:38:00,70.7,63.1,29.94,NNW,333,0.0,3.5,77,0.00,CLR,,0.00,0.0,WeatherDisplay:10.37,2013-06-18 20:38:00,
2013-06-18 22:43:00,70.5,62.9,29.94,NNW,333,0.0,0.0,77,0.00,CLR,,0.00,0.0,WeatherDisplay:10.37,2013-06-18 20:43:00,
2013-06-18 22:48:00,70.4,62.8,29.94,NNW,333,0.0,0.0,77,0.00,CLR,,0.00,0.0,WeatherDisplay:10.37,2013-06-18 20:48:00,
2013-06-18 22:53:00,70.3,63.1,29.94,NNW,333,0.0,0.0,78,0.00,CLR,,0.00,0.0,WeatherDisplay:10.37,2013-06-18 20:53:00,
2013-06-18 22:58:00,70.1,62.9,29.94,NNW,333,0.0,0.0,78,0.00,CLR,,0.00,0.0,WeatherDisplay:10.37,2013-06-18 20:58:00,
2013-06-18 23:03:00,69.9,62.7,29.94,NNW,333,1.2,5.0,78,0.00,CLR,,0.00,0.0,WeatherDisplay:10.37,2013-06-18 21:03:00,
2013-06-18 23:08:00,69.8,62.6,29.94,NNW,333,0.0,0.0,78,0.00,CLR,,0.00,0.0,WeatherDisplay:10.37,2013-06-18 21:08:00,
2013-06-18 23:13:00,69.7,62.5,29.94,NNW,333,2.0,4.0,78,0.00,CLR,,0.00,0.0,WeatherDisplay:10.37,2013-06-18 21:13:00,
2013-06-18 23:18:00,69.4,62.2,29.94,NNW,333,2.8,4.6,78,0.00,CLR,,0.00,0.0,WeatherDisplay:10.37,2013-06-18 21:18:00,
2013-06-18 23:23:00,69.3,62.1,29.94,NNW,333,0.0,5.8,78,0.00,CLR,,0.00,0.0,WeatherDisplay:10.37,2013-06-18 21:23:00,
2013-06-18 23:28:00,69.2,62.0,29.94,NNW,333,0.7,3.5,78,0.00,CLR,,0.00,0.0,WeatherDisplay:10.37,2013-06-18 21:28:00,
2013-06-18 23:33:00,69.1,61.9,29.94,NNW,333,0.3,3.5,78,0.00,CLR,,0.00,0.0,WeatherDisplay:10.37,2013-06-18 21:33:00,
2013-06-18 23:38:00,69.0,61.8,29.94,NNW,336,2.4,6.0,78,0.00,CLR,,0.00,0.0,WeatherDisplay:10.37,2013-06-18 21:38:00,
2013-06-18 23:43:00,68.9,61.7,29.94,NNW,332,3.8,5.8,78,0.00,CLR,,0.00,0.0,WeatherDisplay:10.37,2013-06-18 21:43:00,
2013-06-18 23:48:00,68.9,61.7,29.94,NNW,332,3.7,9.2,78,0.00,CLR,,0.00,0.0,WeatherDisplay:10.37,2013-06-18 21:48:00,
2013-06-18 23:53:00,68.9,61.7,29.94,NW,320,5.1,5.1,78,0.00,CLR,,0.00,0.0,WeatherDisplay:10.37,2013-06-18 21:53:00,
2013-06-18 23:58:00,68.8,62.0,29.94,NNW,342,3.7,6.9,79,0.00,CLR,,0.00,0.0,WeatherDisplay:10.37,2013-06-18 21:58:00,